| time (UTC) | temp F | wind direction | speed knots | gust knots | rain 1hr in | rain 24hr in | rain mn in | humidity % | barometer mb |
| 20260506113546 | 75 | 175 | 0.9 | 1.7 | 0.00 | 0.00 | 0.00 | 95 | 1008.7 |
| 20260506112526 | 75 | 179 | 0.9 | 1.7 | 0.00 | 0.00 | 0.00 | 95 | 1008.7 |
| 20260506111527 | 75 | 125 | 0.9 | 1.7 | 0.00 | 0.00 | 0.00 | 95 | 1008.5 |
| 20260506110526 | 75 | 110 | 0.9 | 1.7 | 0.00 | 0.00 | 0.00 | 95 | 1008.5 |
| 20260506105527 | 75 | 133 | 0.9 | 1.7 | 0.00 | 0.00 | 0.00 | 95 | 1008.3 |
| 20260506104527 | 75 | 49 | 0.0 | 0.9 | 0.00 | 0.00 | 0.00 | 95 | 1008.3 |
| 20260506103527 | 75 | 151 | 0.9 | 1.7 | 0.00 | 0.00 | 0.00 | 94 | 1008.3 |
| 20260506102527 | 75 | 171 | 0.9 | 1.7 | 0.00 | 0.00 | 0.00 | 94 | 1008.4 |
| 20260506101547 | 75 | 182 | 0.9 | 1.7 | 0.00 | 0.00 | 0.00 | 94 | 1008.4 |
| 20260506100528 | 75 | 177 | 1.7 | 2.6 | 0.00 | 0.00 | 0.00 | 94 | 1008.2 |
| 20260506095547 | 75 | 175 | 1.7 | 2.6 | 0.00 | 0.00 | 0.00 | 93 | 1008.2 |
| 20260506094528 | 75 | 189 | 0.9 | 1.7 | 0.00 | 0.00 | 0.00 | 93 | 1008.1 |
| 20260506093528 | 75 | 161 | 0.9 | 1.7 | 0.00 | 0.00 | 0.00 | 93 | 1008.0 |
| 20260506092528 | 76 | 193 | 1.7 | 3.5 | 0.00 | 0.00 | 0.00 | 92 | 1008.0 |
| 20260506091528 | 76 | 177 | 1.7 | 2.6 | 0.00 | 0.00 | 0.00 | 92 | 1008.0 |
| 20260506090528 | 76 | 179 | 1.7 | 3.5 | 0.00 | 0.00 | 0.00 | 92 | 1008.2 |
| 20260506085528 | 76 | 104 | 1.7 | 2.6 | 0.00 | 0.00 | 0.00 | 92 | 1008.2 |
| 20260506084529 | 76 | 185 | 0.9 | 2.6 | 0.00 | 0.00 | 0.00 | 91 | 1008.2 |
| 20260506083530 | 76 | 209 | 0.9 | 2.6 | 0.00 | 0.00 | 0.00 | 91 | 1008.3 |
| 20260506082609 | 76 | 183 | 0.9 | 2.6 | 0.00 | 0.00 | 0.00 | 91 | 1008.3 |
| 20260506081529 | 76 | 174 | 1.7 | 2.6 | 0.00 | 0.00 | 0.00 | 91 | 1008.4 |
| 20260506080529 | 76 | 176 | 1.7 | 2.6 | 0.00 | 0.00 | 0.00 | 91 | 1008.4 |
| 20260506072529 | 77 | 166 | 0.9 | 3.5 | 0.00 | 0.00 | 0.00 | 91 | 1008.8 |
| 20260506071530 | 77 | 169 | 1.7 | 3.5 | 0.00 | 0.00 | 0.00 | 91 | 1008.8 |
| 20260506070530 | 77 | 169 | 1.7 | 2.6 | 0.00 | 0.00 | 0.00 | 91 | 1008.9 |
| 20260506061531 | 77 | 62 | 0.9 | 1.7 | 0.00 | 0.00 | 0.00 | 91 | 1009.2 |
| 20260506060531 | 77 | 225 | 0.9 | 1.7 | 0.00 | 0.00 | 0.00 | 91 | 1009.3 |
| 20260506050516 | 77 | 171 | 1.7 | 2.6 | 0.00 | 0.00 | 0.00 | 90 | 1009.0 |
| 20260506044517 | 77 | 161 | 0.9 | 1.7 | 0.00 | 0.00 | 0.00 | 90 | 1009.2 |
| 20260506043517 | 77 | 196 | 0.9 | 0.9 | 0.00 | 0.00 | 0.00 | 89 | 1009.2 |
| 20260506042517 | 77 | 164 | 0.9 | 3.5 | 0.00 | 0.00 | 0.00 | 89 | 1009.1 |
| 20260506041532 | 77 | 221 | 1.7 | 3.5 | 0.00 | 0.00 | 0.00 | 88 | 1009.0 |
| 20260506040532 | 78 | 172 | 1.7 | 3.5 | 0.00 | 0.00 | 0.00 | 87 | 1008.9 |
| 20260506035517 | 78 | 211 | 0.9 | 1.7 | 0.00 | 0.00 | 0.00 | 87 | 1009.1 |
| 20260506034517 | 78 | 207 | 1.7 | 3.5 | 0.00 | 0.00 | 0.00 | 87 | 1008.9 |
| 20260506033520 | 78 | 162 | 1.7 | 4.3 | 0.00 | 0.00 | 0.00 | 87 | 1008.6 |
| 20260506032518 | 78 | 146 | 0.9 | 2.6 | 0.00 | 0.00 | 0.00 | 86 | 1008.4 |
| 20260506031521 | 78 | 138 | 1.7 | 4.3 | 0.00 | 0.00 | 0.00 | 86 | 1008.3 |
| 20260506030518 | 78 | 179 | 1.7 | 4.3 | 0.00 | 0.00 | 0.00 | 86 | 1008.4 |
| 20260506025518 | 78 | 164 | 1.7 | 3.5 | 0.00 | 0.00 | 0.00 | 86 | 1008.3 |
| 20260506024518 | 78 | 186 | 1.7 | 4.3 | 0.00 | 0.00 | 0.00 | 86 | 1008.2 |
| 20260506023518 | 78 | 153 | 1.7 | 3.5 | 0.00 | 0.00 | 0.00 | 86 | 1008.1 |
| 20260506022521 | 78 | 158 | 1.7 | 4.3 | 0.00 | 0.00 | 0.00 | 85 | 1007.9 |
| 20260506021518 | 78 | 175 | 1.7 | 3.5 | 0.00 | 0.00 | 0.00 | 86 | 1007.8 |
| 20260506020518 | 79 | 179 | 2.6 | 3.5 | 0.00 | 0.00 | 0.00 | 85 | 1007.7 |
| 20260506015518 | 79 | 168 | 1.7 | 3.5 | 0.00 | 0.00 | 0.00 | 84 | 1007.6 |
| 20260506014518 | 79 | 174 | 1.7 | 3.5 | 0.00 | 0.00 | 0.00 | 83 | 1007.4 |
| 20260506013519 | 79 | 164 | 1.7 | 4.3 | 0.00 | 0.00 | 0.00 | 82 | 1007.3 |
| 20260506012522 | 79 | 150 | 1.7 | 6.1 | 0.00 | 0.00 | 0.00 | 82 | 1007.1 |
| 20260506011519 | 80 | 184 | 1.7 | 2.6 | 0.00 | 0.00 | 0.00 | 81 | 1006.9 |
| 20260506010519 | 80 | 171 | 1.7 | 3.5 | 0.00 | 0.00 | 0.00 | 81 | 1006.8 |
| 20260506005519 | 80 | 169 | 1.7 | 4.3 | 0.00 | 0.00 | 0.00 | 80 | 1006.7 |
| 20260506004520 | 80 | 177 | 0.9 | 2.6 | 0.00 | 0.00 | 0.00 | 78 | 1006.8 |
| 20260506003522 | 80 | 175 | 2.6 | 6.1 | 0.00 | 0.00 | 0.00 | 78 | 1006.6 |
| 20260506002523 | 81 | 171 | 2.6 | 5.2 | 0.00 | 0.00 | 0.00 | 78 | 1006.5 |
| 20260506001523 | 81 | 176 | 2.6 | 5.2 | 0.00 | 0.00 | 0.00 | 77 | 1006.5 |
| 20260506000517 | 81 | 169 | 2.6 | 6.1 | 0.00 | 0.00 | 0.00 | 78 | 1006.6 |
| 20260505235557 | 81 | 180 | 1.7 | 4.3 | 0.00 | 0.00 | 0.00 | 78 | 1006.5 |
| 20260505234517 | 81 | 171 | 2.6 | 4.3 | 0.00 | 0.00 | 0.00 | 77 | 1006.4 |
| 20260505233540 | 81 | 173 | 2.6 | 4.3 | 0.00 | 0.00 | 0.00 | 78 | 1006.4 |
| 20260505232540 | 81 | 178 | 2.6 | 6.1 | 0.00 | 0.00 | 0.00 | 78 | 1006.5 |
| 20260505231518 | 82 | 176 | 2.6 | 7.0 | 0.00 | 0.00 | 0.00 | 77 | 1006.5 |
| 20260505230518 | 82 | 174 | 1.7 | 5.2 | 0.00 | 0.00 | 0.00 | 78 | 1006.5 |
| 20260505225518 | 82 | 178 | 2.6 | 6.1 | 0.00 | 0.00 | 0.00 | 78 | 1006.5 |
| 20260505224558 | 82 | 159 | 2.6 | 7.0 | 0.00 | 0.00 | 0.00 | 78 | 1006.6 |
| 20260505223518 | 83 | 175 | 2.6 | 8.7 | 0.00 | 0.00 | 0.00 | 76 | 1006.6 |
| 20260505222518 | 83 | 174 | 2.6 | 7.0 | 0.00 | 0.00 | 0.00 | 77 | 1006.6 |
| 20260505221518 | 82 | 169 | 2.6 | 7.0 | 0.00 | 0.00 | 0.00 | 77 | 1006.6 |
| 20260505220519 | 83 | 188 | 2.6 | 6.1 | 0.00 | 0.00 | 0.00 | 76 | 1006.7 |
| 20260505215519 | 83 | 166 | 2.6 | 6.1 | 0.00 | 0.00 | 0.00 | 75 | 1006.8 |
| 20260505214519 | 83 | 170 | 2.6 | 7.8 | 0.00 | 0.00 | 0.00 | 75 | 1006.9 |
| 20260505213539 | 84 | 157 | 2.6 | 7.8 | 0.00 | 0.00 | 0.00 | 75 | 1007.0 |
| 20260505212519 | 83 | 170 | 2.6 | 7.0 | 0.00 | 0.00 | 0.00 | 75 | 1007.1 |
| 20260505211539 | 83 | 165 | 2.6 | 6.1 | 0.00 | 0.00 | 0.00 | 76 | 1007.2 |
| 20260505210519 | 83 | 165 | 2.6 | 6.1 | 0.00 | 0.00 | 0.00 | 75 | 1007.4 |
| 20260505205516 | 83 | 173 | 3.5 | 7.0 | 0.00 | 0.00 | 0.00 | 75 | 1007.5 |
| 20260505204557 | 83 | 176 | 3.5 | 9.6 | 0.00 | 0.00 | 0.00 | 74 | 1007.7 |
| 20260505203519 | 83 | 169 | 2.6 | 6.1 | 0.00 | 0.00 | 0.00 | 74 | 1007.8 |
| 20260505202540 | 83 | 165 | 3.5 | 8.7 | 0.00 | 0.00 | 0.00 | 75 | 1008.0 |
| 20260505201520 | 83 | 170 | 3.5 | 7.0 | 0.00 | 0.00 | 0.00 | 74 | 1008.1 |
| 20260505200517 | 84 | 178 | 3.5 | 9.6 | 0.00 | 0.00 | 0.00 | 74 | 1008.2 |
| 20260505195517 | 83 | 168 | 3.5 | 7.8 | 0.00 | 0.00 | 0.00 | 75 | 1008.2 |
| 20260505194520 | 82 | 161 | 2.6 | 6.1 | 0.00 | 0.00 | 0.00 | 77 | 1008.4 |
| 20260505193520 | 82 | 171 | 3.5 | 7.0 | 0.00 | 0.00 | 0.00 | 77 | 1008.4 |
| 20260505192520 | 82 | 193 | 2.6 | 5.2 | 0.00 | 0.00 | 0.00 | 77 | 1008.5 |
| 20260505191520 | 82 | 181 | 3.5 | 4.3 | 0.00 | 0.00 | 0.00 | 78 | 1008.6 |
| 20260505190521 | 81 | 185 | 2.6 | 4.3 | 0.00 | 0.00 | 0.00 | 78 | 1008.6 |
| 20260505185521 | 81 | 171 | 2.6 | 6.1 | 0.00 | 0.00 | 0.00 | 78 | 1008.6 |
| 20260505184521 | 81 | 154 | 2.6 | 6.1 | 0.00 | 0.00 | 0.00 | 78 | 1008.7 |
| 20260505183521 | 82 | 161 | 2.6 | 5.2 | 0.00 | 0.00 | 0.00 | 77 | 1008.7 |
| 20260505182524 | 81 | 168 | 1.7 | 4.3 | 0.00 | 0.00 | 0.00 | 78 | 1008.8 |
| 20260505181541 | 80 | 163 | 3.5 | 6.1 | 0.00 | 0.00 | 0.00 | 79 | 1008.9 |
| 20260505180521 | 80 | 174 | 3.5 | 5.2 | 0.00 | 0.00 | 0.00 | 80 | 1009.0 |
| 20260505175521 | 80 | 174 | 3.5 | 6.1 | 0.00 | 0.00 | 0.00 | 80 | 1009.1 |
| 20260505174521 | 80 | 178 | 2.6 | 4.3 | 0.00 | 0.00 | 0.00 | 80 | 1009.2 |
| 20260505173522 | 79 | 159 | 2.6 | 6.1 | 0.00 | 0.00 | 0.00 | 81 | 1009.3 |
| 20260505172522 | 80 | 169 | 2.6 | 6.1 | 0.00 | 0.00 | 0.00 | 81 | 1009.3 |
| 20260505171522 | 80 | 165 | 2.6 | 5.2 | 0.00 | 0.00 | 0.00 | 80 | 1009.2 |
| 20260505170545 | 80 | 170 | 1.7 | 4.3 | 0.00 | 0.00 | 0.00 | 81 | 1009.3 |
| 20260505165525 | 79 | 168 | 1.7 | 3.5 | 0.00 | 0.00 | 0.00 | 81 | 1009.4 |
| 20260505164517 | 79 | 178 | 3.5 | 7.8 | 0.00 | 0.00 | 0.00 | 82 | 1009.3 |
| 20260505163516 | 78 | 171 | 2.6 | 8.7 | 0.00 | 0.00 | 0.00 | 85 | 1009.3 |
| 20260505162525 | 77 | 166 | 1.7 | 3.5 | 0.00 | 0.00 | 0.00 | 88 | 1009.4 |
| 20260505161516 | 77 | 160 | 2.6 | 5.2 | 0.00 | 0.00 | 0.00 | 87 | 1009.3 |
| 20260505160522 | 78 | 156 | 2.6 | 5.2 | 0.00 | 0.00 | 0.00 | 85 | 1009.2 |
| 20260505152526 | 77 | 178 | 2.6 | 4.3 | 0.00 | 0.00 | 0.00 | 86 | 1009.0 |
| 20260505151517 | 77 | 153 | 1.7 | 5.2 | 0.00 | 0.00 | 0.00 | 86 | 1009.1 |
| 20260505150517 | 76 | 163 | 2.6 | 6.1 | 0.00 | 0.00 | 0.00 | 87 | 1009.0 |
| 20260505140526 | 75 | 170 | 1.7 | 2.6 | 0.00 | 0.00 | 0.00 | 89 | 1008.8 |
| 20260505124528 | 72 | 170 | 0.9 | 2.6 | 0.00 | 0.00 | 0.00 | 93 | 1008.7 |
| 20260505123527 | 71 | 165 | 0.9 | 1.7 | 0.00 | 0.00 | 0.00 | 94 | 1008.7 |
| 20260505122528 | 71 | 165 | 0.9 | 1.7 | 0.00 | 0.00 | 0.00 | 94 | 1008.6 |
| 20260505121528 | 71 | 199 | 0.9 | 2.6 | 0.00 | 0.00 | 0.00 | 94 | 1008.5 |
| 20260505120528 | 71 | 181 | 0.9 | 1.7 | 0.00 | 0.00 | 0.00 | 94 | 1008.3 |
| 20260505115548 | 70 | 173 | 0.9 | 2.6 | 0.00 | 0.00 | 0.00 | 94 | 1008.1 |
| 20260505114528 | 70 | 193 | 0.9 | 1.7 | 0.00 | 0.00 | 0.00 | 94 | 1008.3 |